Regional Weather Roundup
Issued by NWS Green Bay, WI

Home | Current Version | Previous Version | Text Only | Print | Product List | Glossary On
Versions: 1 2 3 4 5 6 7 8 9 10 11 12 13 14 15 16 17 18 19 20 21 22 23 24 25 26 27 28 29 30 31 32 33 34 35 36 37 38 39 40 41 42 43 44 45 46 47 48 49 50
000
ASUS43 KGRB 280511
RWRGRB

NORTH-CENTRAL AND NORTHEAST WISCONSIN REGIONAL WEATHER ROUNDUP
NATIONAL WEATHER SERVICE GREEN BAY WI
1200 AM CDT SUN MAY 28 2017

WIZ005-009-010>012-018-019-280600-
NORTH CENTRAL WISCONSIN

CITY           SKY/WX    TMP DP  RH WIND       PRES   REMARKS
IRONWOOD       CLEAR     57  45  64 SW6       29.79F
MANITOWISH WTR PTCLDY    56  51  82 W5        29.81F
ARBOR VITAE    MOCLDY    59  50  71 W5        29.81F
EAGLE RIVER    PTCLDY    53  45  74 CALM      29.82S
LAND O LAKES   MOCLDY    52  49  89 CALM      29.83F
RHINELANDER    PTCLDY    57  49  74 W3        29.83F
PHILLIPS       PTCLDY    57  49  75 SW5       29.81F
ANTIGO         CLOUDY    58  52  78 W5        29.83F
TOMAHAWK       PTCLDY    51  49  91 CALM      29.83F
MERRILL        CLOUDY    59  51  74 CALM      29.83F
$$

WIZ013-073-280600-
NORTHEAST WISCONSIN

CITY           SKY/WX    TMP DP  RH WIND       PRES   REMARKS
IRON MOUNTAIN  MOCLDY    58  50  75 CALM      29.79F
MARINETTE      NOT AVBL
OCONTO         MOCLDY    56  55  94 CALM      29.79F
$$

WIZ017-030-035>037-045-280600-
CENTRAL WISCONSIN

CITY           SKY/WX    TMP DP  RH WIND       PRES   REMARKS
MEDFORD        PTCLDY    56  49  75 SW3       29.82F
WAUSAU         CLOUDY    60  54  80 CALM      29.81F
MOSINEE        CLOUDY    59  52  77 W3        29.84F
MARSHFIELD     CLOUDY    58  52  80 W5        29.82F
WISC RAPIDS    CLOUDY    59  54  83 CALM      29.83F
STEVENS POINT  CLOUDY    57  53  88 N3        29.82F
WAUPACA        CLOUDY    66  51  58 CALM      29.81F
SHAWANO        CLOUDY    65  51  59 W3        29.82S
CLINTONVILLE   CLOUDY    63  50  63 W3        29.81F
WAUTOMA        CLOUDY    63  52  67 NW3       29.82F
$$

WIZ038-039-048-051-280600-
FOX VALLEY

CITY           SKY/WX    TMP DP  RH WIND       PRES   REMARKS
NWS GREEN BAY  CLOUDY    61  58  90 S3        29.81S
APPLETON       CLOUDY    61  50  67 W6        29.81F
OSHKOSH        LGT RAIN  65  55  70 W5        29.82S
FOND DU LAC    LGT RAIN  66  53  63 NW6       29.82F
$$

WIZ022-050-052-280600-
EAST CENTRAL WISCONSIN

CITY           SKY/WX    TMP DP  RH WIND       PRES   REMARKS
EPHRAIM        FAIR      57  55  93 SW3       29.79F
WASHINGTON ISL MOCLDY    53  50  88 CALM      29.78F
STURGEON BAY   CLOUDY    58  53  84 CALM      29.81F
MANITOWOC      CLOUDY    62  54  74 SW6       29.82F
SHEBOYGAN      CLOUDY    60  56  86 SW5       29.83S
$$

LMZ563-521-522-541>543-280600-
LAKESHORE

STATION/POSITION TIME  TEMP    WIND        PRES    VSBY  WAVE
                       AIR SEA DIR/SP/G                  HT/PER
                 (UTC) (F)     (DEG/KT/KT) (MB)    (MI)  (FT/S)
SHEBOYGAN LKSHOR 0500   63     210/  7/  8 1009.6F
KEWAUNEE LKSHORE 0448   59      CALM  /  2 1009.1F
ALGOMA MARINA    0416             CALM       N/A
NORTHPORT PIER   0440   60     180/  4/  8 1008.8F
N MID LAKE BUOY  0450   46 42  170/ 10/ 12 1010.2F         1
SISTER BAY LKSHO 0351   58     160/  7/  8   N/A
CHAMBERS ISLAND  0440   60     170/  4/  8 1008.8F
MENOMINEE LKSHOR 0448          190/  2/  4 1008.1F
$$




USA.gov is the U.S. government's official web portal to all federal, state and local government web resources and services.